Location: Gunung Kajang
(2.4167°N, 113.7167°E)
Time: 17:02:55
(UTC+00:00)

CZ-2C R/B - Pass Details

Date: 29 May 2022
Orbit: 785 x 869 km, 98.2° (Epoch: 06 July)

Event Time Altitude Azimuth Distance (km) Brightness Sun altitude
Rises 20:53:29 0° 152° (SSE) 3,273 5.8 -19.7°
Reaches altitude 10° 20:55:57 10° 144° (SE) 2,341 5.1 -19.1°
Maximum altitude 21:00:41 37° 78° (ENE) 1,194 4.1 -18.0°
Drops below altitude 10° 21:05:25 10° 11° (N) 2,344 5.5 -16.9°
Sets 21:07:53 0° 3° (N) 3,279 6.1 -16.4°
